N2PUI Weather Reports


time (UTC)temp
C
wind
direction
speed
KPH
gust
KPH
rain 1hr
cm
rain 24hr
cm
rain mn
cm
humidity
%
barometer
mb
20260506070305 9 134 1.6 1.6 0.00 0.00 0.00 91 1008.2
20260506062243 9 157 0.0 0.0 0.00 0.00 0.00 90 1008.9
20260506061738 10 154 0.0 0.0 0.00 0.00 0.00 90 1008.8
20260506061235 10 155 0.0 0.0 0.00 0.00 0.00 90 1008.9
20260506060734 10 148 1.6 1.6 0.00 0.00 0.00 90 1008.9
20260506060230 10 155 0.0 0.0 0.00 0.00 0.00 90 1009.0
20260506051157 10 134 0.0 0.0 0.00 0.00 0.00 89 1009.4
20260506050655 10 107 3.2 3.2 0.00 0.00 0.00 88 1009.8
20260506050152 10 144 1.6 1.6 0.00 0.00 0.00 88 1010.1
20260506044643 10 107 3.2 3.2 0.00 0.00 0.00 88 1010.0
20260506044140 10 100 3.2 3.2 0.00 0.00 0.00 88 1010.3
20260506043637 9 34 4.8 4.8 0.00 0.00 0.00 88 1010.1
20260506043135 10 90 4.8 4.8 0.00 0.00 0.00 88 1010.0
20260506042634 10 107 3.2 3.2 0.00 0.00 0.00 87 1009.6
20260506042132 10 23 4.8 4.8 0.00 0.00 0.00 87 1009.8
20260506041630 10 91 4.8 4.8 0.00 0.00 0.00 87 1009.8
20260506041126 10 117 3.2 3.2 0.00 0.00 0.00 87 1009.8
20260506040624 10 92 3.2 3.2 0.00 0.00 0.00 87 1010.1
20260506040120 10 145 0.0 0.0 0.00 0.00 0.00 87 1010.1
20260506035617 10 139 0.0 0.0 0.00 0.25 0.25 87 1009.8
20260506035114 10 105 3.2 3.2 0.00 0.25 0.25 87 1010.2
20260506034611 10 147 0.0 1.6 0.00 0.25 0.25 86 1010.5
20260506034108 10 100 3.2 3.2 0.00 0.25 0.25 87 1010.3
20260506033605 10 131 1.6 1.6 0.00 0.25 0.25 86 1010.4
20260506033102 10 144 0.0 1.6 0.00 0.25 0.25 86 1010.5
20260506032600 10 132 1.6 1.6 0.00 0.25 0.25 86 1010.4
20260506032056 10 143 1.6 1.6 0.00 0.25 0.25 85 1010.2
20260506031554 11 153 0.0 0.0 0.00 0.25 0.25 85 1010.1
20260506031050 11 199 1.6 1.6 0.00 0.25 0.25 85 1010.4
20260506030549 11 144 0.0 0.0 0.00 0.25 0.25 84 1010.4
20260506030046 11 176 0.0 1.6 0.00 0.25 0.25 84 1010.5
20260506025542 12 175 1.6 1.6 0.00 0.25 0.25 84 1010.3
20260506025038 12 132 1.6 1.6 0.00 0.25 0.25 84 1010.4
20260506024536 12 152 1.6 1.6 0.00 0.25 0.25 84 1010.4
20260506024032 12 233 3.2 4.8 0.00 0.25 0.25 84 1010.4
20260506023528 12 202 3.2 3.2 0.00 0.25 0.25 84 1010.6
20260506023026 12 214 1.6 3.2 0.00 0.25 0.25 84 1010.8
20260506022523 12 254 1.6 3.2 0.00 0.25 0.25 84 1010.6
20260506022021 12 344 3.2 3.2 0.00 0.25 0.25 85 1010.5
20260506021518 12 160 0.0 1.6 0.00 0.25 0.25 84 1010.7
20260506021015 12 193 1.6 1.6 0.00 0.25 0.25 84 1010.9
20260506020513 12 182 0.0 0.0 0.00 0.25 0.25 84 1010.6
20260506020010 12 106 1.6 3.2 0.00 0.25 0.25 84 1010.4
20260506015507 12 131 1.6 1.6 0.00 0.25 0.25 83 1010.4
20260506015004 12 183 1.6 1.6 0.00 0.25 0.25 83 1010.1
20260506014502 13 237 1.6 3.2 0.00 0.25 0.25 84 1010.0
20260506013957 13 252 3.2 3.2 0.00 0.25 0.25 84 1010.0
20260506013455 13 165 1.6 1.6 0.00 0.25 0.25 84 1010.0
20260506012951 13 247 6.4 9.7 0.00 0.25 0.25 84 1009.6
20260506012448 14 188 4.8 4.8 0.00 0.25 0.25 84 1009.5
20260506011945 14 242 6.4 9.7 0.00 0.25 0.25 84 1009.4
20260506011442 15 140 3.2 4.8 0.00 0.25 0.25 85 1009.4
20260506010939 15 246 4.8 4.8 0.00 0.25 0.25 86 1009.0
20260506010438 15 348 4.8 4.8 0.00 0.25 0.25 85 1008.9
20260506005934 15 213 1.6 1.6 0.00 0.25 0.25 85 1009.0
20260506005432 15 174 1.6 1.6 0.00 0.25 0.25 85 1008.6
20260506004926 15 234 4.8 4.8 0.00 0.25 0.25 85 1008.7
20260506004425 15 147 1.6 1.6 0.00 0.25 0.25 85 1008.7
20260506003920 15 183 1.6 3.2 0.00 0.25 0.25 85 1008.5
20260506003417 15 185 1.6 1.6 0.00 0.25 0.25 86 1008.6
20260506002914 15 124 1.6 1.6 0.00 0.25 0.25 86 1008.5
20260506002410 16 175 1.6 1.6 0.00 0.25 0.25 86 1008.6
20260506001905 16 214 1.6 1.6 0.00 0.25 0.25 86 1008.4
20260506001403 16 206 0.0 1.6 0.00 0.25 0.25 87 1008.4
20260506000900 16 207 0.0 1.6 0.00 0.25 0.25 86 1008.0
20260506000358 16 338 6.4 8.0 0.00 0.25 0.25 86 1008.2
20260505235854 16 173 3.2 3.2 0.00 0.25 0.25 85 1007.8
20260505235352 16 181 1.6 1.6 0.00 0.25 0.25 85 1007.9
20260505234848 16 176 1.6 1.6 0.00 0.25 0.25 85 1007.5
20260505234346 16 176 0.0 0.0 0.00 0.25 0.25 85 1007.8
20260505233843 16 176 0.0 1.6 0.00 0.25 0.25 85 1007.6
20260505233341 16 191 0.0 0.0 0.00 0.25 0.25 85 1007.8
20260505232838 16 191 1.6 1.6 0.00 0.25 0.25 85 1007.7
20260505232336 17 190 0.0 0.0 0.00 0.25 0.25 84 1007.8
20260505231832 17 194 0.0 0.0 0.00 0.25 0.25 84 1007.8
20260505231330 17 194 0.0 1.6 0.18 0.25 0.25 83 1007.6
20260505230828 17 191 0.0 1.6 0.18 0.25 0.25 83 1007.6
20260505230325 17 191 0.0 0.0 0.00 0.23 0.23 82 1007.3
20260505225821 17 155 1.6 1.6 0.00 0.23 0.23 81 1007.4
20260505225319 17 205 3.2 3.2 0.00 0.23 0.23 80 1007.6
20260505224814 17 173 1.6 3.2 0.00 0.23 0.23 80 1007.8
20260505224312 17 163 3.2 8.0 0.00 0.23 0.23 80 1008.0
20260505223808 17 161 0.0 0.0 0.13 0.23 0.23 81 1007.9
20260505223306 18 160 0.0 0.0 0.13 0.23 0.23 81 1007.9
20260505222801 18 160 0.0 0.0 0.00 0.20 0.20 79 1007.5
20260505222257 18 160 0.0 1.6 0.00 0.20 0.20 78 1007.5
20260505221755 18 160 1.6 1.6 0.00 0.20 0.20 78 1007.3
20260505221251 18 134 3.2 3.2 0.00 0.20 0.20 77 1006.8
20260505220748 18 160 0.0 0.0 0.00 0.20 0.20 77 1007.4
20260505220245 18 160 0.0 0.0 0.00 0.20 0.20 77 1006.8
20260505215744 18 160 1.6 3.2 0.00 0.20 0.20 77 1006.9
20260505215241 18 160 0.0 0.0 0.00 0.20 0.20 76 1007.2
20260505214739 18 160 0.0 0.0 0.00 0.20 0.20 77 1006.9
20260505214236 18 160 0.0 1.6 0.00 0.20 0.20 77 1006.8
20260505213733 18 161 1.6 1.6 0.00 0.20 0.20 76 1006.8
20260505213230 18 146 1.6 1.6 0.00 0.20 0.20 79 1006.7
20260505212726 17 133 1.6 1.6 0.00 0.20 0.20 81 1006.4
20260505212224 17 145 0.0 1.6 0.00 0.20 0.20 82 1006.4
20260505211721 16 131 6.4 8.0 0.00 0.20 0.20 83 1006.8
20260505211218 16 134 4.8 4.8 0.00 0.20 0.20 85 1006.7
20260505210714 16 164 1.6 3.2 0.00 0.20 0.20 88 1006.7
20260505210211 16 135 4.8 4.8 0.00 0.20 0.20 88 1006.4
20260505205708 16 163 4.8 4.8 0.00 0.20 0.20 88 1006.7
20260505205207 16 157 1.6 1.6 0.00 0.20 0.20 89 1006.6
20260505204703 16 155 1.6 1.6 0.00 0.20 0.20 89 1006.7
20260505204200 15 155 1.6 1.6 0.00 0.20 0.20 89 1006.8
20260505203652 15 155 1.6 1.6 0.00 0.20 0.20 88 1006.9
20260505203148 15 138 0.0 0.0 0.00 0.20 0.20 88 1007.0
20260505202644 15 291 6.4 8.0 0.00 0.20 0.20 88 1007.1
20260505202141 15 18 3.2 3.2 0.00 0.20 0.20 87 1007.3
20260505201637 15 318 4.8 4.8 0.00 0.20 0.20 87 1007.6
20260505201135 15 328 6.4 9.7 0.18 0.20 0.20 87 1007.7
20260505200633 15 273 9.7 14.5 0.48 0.20 0.20 86 1007.9
20260505200130 16 259 8.0 11.3 0.48 0.18 0.18 85 1008.1
20260505195626 16 267 11.3 17.7 0.18 0.13 0.13 84 1008.6
20260505195123 16 187 12.9 16.1 0.13 0.10 0.10 83 1008.3
20260505194620 16 314 20.9 25.7 0.43 0.10 0.10 82 1008.1
20260505194116 17 296 9.7 12.9 0.30 0.08 0.08 77 1007.6
20260505193613 21 256 14.5 20.9 0.00 0.03 0.03 62 1007.0
20260505193110 22 240 8.0 9.7 0.00 0.03 0.03 50 1006.1
20260505192609 23 226 6.4 9.7 0.00 0.03 0.03 45 1005.8
20260505192106 23 234 6.4 9.7 0.00 0.03 0.03 43 1005.5
20260505191604 23 190 1.6 3.2 0.00 0.03 0.03 45 1005.5
20260505191102 23 169 3.2 4.8 0.00 0.03 0.03 46 1005.4
20260505190556 23 184 4.8 4.8 0.00 0.03 0.03 44 1005.4
20260505190052 23 243 11.3 20.9 0.00 0.03 0.03 45 1005.3
20260505185549 23 226 4.8 4.8 0.00 0.03 0.03 47 1005.4
20260505185046 23 210 14.5 20.9 0.00 0.03 0.03 46 1005.4
20260505184542 23 108 6.4 9.7 0.00 0.03 0.03 48 1005.1
20260505184039 24 220 8.0 9.7 0.00 0.03 0.03 49 1005.3
20260505183536 23 148 19.3 27.4 0.00 0.03 0.03 48 1005.5
20260505183033 23 187 8.0 9.7 0.00 0.03 0.03 48 1005.8
20260505182530 23 167 14.5 17.7 0.00 0.03 0.03 50 1005.8
20260505182026 23 238 11.3 16.1 0.00 0.03 0.03 51 1005.7
20260505181523 21 182 3.2 3.2 0.00 0.03 0.03 63 1005.9
20260505181021 20 191 1.6 1.6 0.00 0.03 0.03 69 1005.9
20260505180516 19 196 1.6 3.2 0.00 0.03 0.03 74 1006.0
20260505180015 18 185 1.6 1.6 0.00 0.03 0.03 75 1006.7
20260505175509 18 177 1.6 1.6 0.00 0.03 0.03 78 1006.6
20260505175007 18 222 6.4 8.0 0.18 0.03 0.03 76 1006.8
20260505174504 18 161 0.0 1.6 0.18 0.03 0.03 75 1007.0
20260505173959 18 174 1.6 1.6 0.00 0.00 0.00 71 1007.2
20260505173455 21 220 17.7 20.9 0.00 0.00 0.00 64 1006.8
20260505172953 22 163 1.6 1.6 0.00 0.00 0.00 55 1006.6
20260505172451 23 269 4.8 8.0 0.00 0.00 0.00 48 1006.4
20260505171951 23 157 1.6 3.2 0.00 0.00 0.00 48 1006.6
20260505171447 23 222 9.7 14.5 0.00 0.00 0.00 48 1006.6
20260505170944 23 180 3.2 3.2 0.00 0.00 0.00 49 1006.4
20260505170441 23 167 8.0 11.3 0.00 0.00 0.00 46 1006.3
20260505165936 24 210 9.7 11.3 0.00 0.00 0.00 46 1006.3
20260505165432 24 262 4.8 9.7 0.00 0.00 0.00 45 1005.9
20260505164922 24 178 4.8 4.8 0.00 0.00 0.00 45 1005.9
20260505164419 24 206 3.2 3.2 0.00 0.00 0.00 47 1006.1
20260505163917 24 184 3.2 3.2 0.00 0.00 0.00 43 1006.2
20260505163416 24 299 6.4 8.0 0.00 0.00 0.00 43 1006.1
20260505162914 25 194 8.0 9.7 0.00 0.00 0.00 45 1006.1
20260505162410 24 230 8.0 9.7 0.00 0.00 0.00 45 1006.3
20260505161907 23 235 11.3 14.5 0.00 0.00 0.00 45 1006.6
20260505161404 23 212 9.7 11.3 0.00 0.00 0.00 46 1006.4
20260505160901 23 191 4.8 8.0 0.00 0.00 0.00 46 1006.4
20260505160359 23 321 8.0 11.3 0.00 0.00 0.00 46 1006.7
20260505153338 25 226 12.9 14.5 0.00 0.00 0.00 45 1006.8
20260505152834 23 164 1.6 3.2 0.00 0.00 0.00 46 1006.8
20260505152331 24 171 8.0 14.5 0.00 0.00 0.00 45 1006.7
20260505151826 23 179 4.8 4.8 0.00 0.00 0.00 49 1007.0
20260505151323 23 224 17.7 22.5 0.00 0.00 0.00 47 1006.7
20260505150820 23 141 20.9 27.4 0.00 0.00 0.00 45 1006.3
20260505150317 23 191 6.4 8.0 0.00 0.00 0.00 47 1006.4
20260505140241 21 184 8.0 9.7 0.00 0.00 0.00 54 1007.3
20260505130205 18 269 4.8 11.3 0.00 0.00 0.00 59 1007.7
20260505124655 17 158 0.0 1.6 0.00 0.00 0.00 64 1007.9
20260505124151 17 162 3.2 4.8 0.00 0.00 0.00 64 1008.1
20260505123648 17 204 9.7 11.3 0.00 0.00 0.00 63 1008.1
20260505123144 17 183 8.0 11.3 0.00 0.00 0.00 63 1008.2
20260505122640 17 219 4.8 4.8 0.00 0.00 0.00 64 1008.2
20260505122138 17 187 0.0 1.6 0.00 0.00 0.00 63 1008.1
20260505121628 17 230 6.4 8.0 0.00 0.00 0.00 62 1008.3
20260505121120 17 211 1.6 3.2 0.00 0.00 0.00 63 1008.0
20260505120615 17 193 3.2 3.2 0.00 0.00 0.00 63 1007.9
20260505120111 17 131 4.8 4.8 0.00 0.00 0.00 62 1007.8
20260505115606 17 171 6.4 9.7 0.00 0.00 0.00 62 1007.8
20260505115104 17 186 1.6 1.6 0.00 0.00 0.00 63 1008.0
20260505114601 16 168 0.0 1.6 0.00 0.00 0.00 63 1008.0
20260505114057 16 148 4.8 8.0 0.00 0.00 0.00 63 1007.9
20260505113554 16 176 4.8 4.8 0.00 0.00 0.00 62 1007.9
20260505113050 16 111 4.8 8.0 0.00 0.00 0.00 63 1007.8
20260505112546 16 163 8.0 11.3 0.00 0.00 0.00 63 1007.9
20260505112044 16 140 6.4 9.7 0.00 0.00 0.00 64 1008.0
20260505111538 16 138 4.8 8.0 0.00 0.00 0.00 64 1008.0
20260505111035 16 167 8.0 9.7 0.00 0.00 0.00 65 1008.0
20260505110532 16 108 8.0 16.1 0.00 0.00 0.00 65 1008.1
20260505102004 16 189 4.8 8.0 0.00 0.00 0.00 60 1007.6
20260505101503 16 232 3.2 3.2 0.00 0.00 0.00 60 1007.6
20260505100958 16 195 1.6 1.6 0.00 0.00 0.00 60 1007.5
20260505100455 16 204 4.8 8.0 0.00 0.00 0.00 60 1007.6
20260505095952 16 232 4.8 4.8 0.00 0.00 0.00 60 1007.5
20260505095448 16 194 1.6 1.6 0.00 0.00 0.00 59 1007.3
20260505094944 16 191 1.6 1.6 0.00 0.00 0.00 59 1007.2
20260505094441 16 184 0.0 1.6 0.00 0.00 0.00 60 1007.1
20260505093937 16 151 1.6 1.6 0.00 0.00 0.00 59 1007.1
20260505093434 16 180 1.6 1.6 0.00 0.00 0.00 60 1007.1
20260505092932 16 191 3.2 4.8 0.00 0.00 0.00 59 1006.9
20260505092429 16 201 3.2 3.2 0.00 0.00 0.00 59 1006.9
20260505091926 16 199 6.4 8.0 0.00 0.00 0.00 58 1007.1
20260505091424 16 177 1.6 3.2 0.00 0.00 0.00 59 1007.1
20260505090922 16 203 3.2 4.8 0.00 0.00 0.00 59 1006.9
20260505090420 16 199 3.2 3.2 0.00 0.00 0.00 59 1006.9
20260505085917 15 176 0.0 1.6 0.00 0.00 0.00 60 1006.9
20260505085415 15 174 0.0 1.6 0.00 0.00 0.00 60 1007.1
20260505084913 15 163 3.2 3.2 0.00 0.00 0.00 61 1006.9
20260505084411 15 156 0.0 1.6 0.00 0.00 0.00 60 1006.8
20260505083909 15 140 0.0 0.0 0.00 0.00 0.00 60 1006.6
20260505083406 15 177 4.8 4.8 0.00 0.00 0.00 59 1006.8
20260505082902 15 124 0.0 3.2 0.00 0.00 0.00 59 1006.7
20260505082357 15 126 3.2 3.2 0.00 0.00 0.00 59 1006.7
20260505081855 16 162 3.2 3.2 0.00 0.00 0.00 59 1006.8
20260505081351 16 120 4.8 4.8 0.00 0.00 0.00 58 1006.9
20260505080848 16 145 1.6 3.2 0.00 0.00 0.00 57 1006.9
20260505080344 16 170 3.2 3.2 0.00 0.00 0.00 57 1007.1
20260505075840 16 155 1.6 1.6 0.00 0.00 0.00 57 1006.8
20260505075337 16 124 4.8 4.8 0.00 0.00 0.00 57 1006.9
20260505074834 16 147 4.8 4.8 0.00 0.00 0.00 57 1007.0
20260505074331 16 164 3.2 3.2 0.00 0.00 0.00 56 1006.8
20260505073828 16 182 4.8 4.8 0.00 0.00 0.00 56 1006.9
20260505073326 16 153 3.2 4.8 0.00 0.00 0.00 56 1006.9
20260505072823 16 138 4.8 4.8 0.00 0.00 0.00 56 1007.0
20260505072319 16 154 1.6 1.6 0.00 0.00 0.00 56 1006.9
20260505071815 16 191 8.0 9.7 0.00 0.00 0.00 55 1007.0
20260505071312 16 164 0.0 0.0 0.00 0.00 0.00 57 1007.1
20260505070810 16 166 3.2 3.2 0.00 0.00 0.00 56 1007.0